Home   Weather   Cuxhaven   Past weeks
Flag for Germany

Past Weather in Cuxhaven, Lower Saxony, Germany — Yesterday and Last 2 Weeks

Now
52 °F

Fog.


Feels Like: 51 °F
Forecast: 58 / 54 °F
Wind: 3 mph from North

Location: Nordholz

Current Time: Oct 24, 2019 at 4:53:37 am

Latest Report: Oct 24, 2019 at 4:04 am


Visibility: 1 mi

Pressure: 29.80 "Hg

Humidity: 94%

Dew Point: 50 °F

Location of CuxhavenLocation

Past Weather in Cuxhaven — Graph

°F

Cuxhaven Temperature Yesterday

Maximum temperature yesterday: 55 °F (at 1:20 pm)
Minimum temperature yesterday: 45 °F (at 6:20 am)
Average temperature yesterday: 51 °F

High & Low Weather Summary for the Past Weeks

 TemperatureHumidityPressure
High66 °F (Oct 13, 6:20 pm)100% (Oct 12, 2:46 am)30.21 "Hg (Oct 12, 2:46 am)
Low45 °F (Oct 23, 6:20 am)67% (Oct 10, 5:20 pm)29.53 "Hg (Oct 18, 2:49 pm)
Average54 °F89%29.79 "Hg
* Reported Oct 9 3:20 am — Oct 24 3:20 am, Cuxhaven. Weather by CustomWeather, © 2019

Note: Actual official high and low records may vary slightly from our data, if they occured in-between our weather recording intervals... More about our weather records

Advertising

Cuxhaven Weather History for the Previous 24 Hours

Scroll right to see more
 ConditionsComfort  
Time TempWeatherWind HumidityBarometerVisibility
3:20 am
Thu, Oct 24
50 °FFog.6 mph100%29.80 "Hg0 mi
2:20 am50 °FFog.3 mph94%29.83 "Hg1 mi
1:41 am52 °FFog.5 mph94%29.83 "Hg2 mi
12:20 am52 °FFog.7 mph94%29.83 "Hg3 mi
11:20 pm
Wed, Oct 23
52 °FPassing clouds.7 mph94%29.86 "Hg4 mi
10:20 pm52 °FPassing clouds.8 mph94%29.86 "Hg6 mi
9:20 pm52 °FPassing clouds.6 mph94%29.89 "Hg5 mi
8:20 pm52 °FPassing clouds.6 mph94%29.92 "Hg5 mi
7:20 pm54 °FPassing clouds.7 mph88%29.95 "Hg5 mi
6:20 pm55 °FPassing clouds.7 mph82%29.95 "Hg5 mi
5:20 pm55 °FPartly sunny.6 mph82%29.98 "Hg5 mi
4:20 pm55 °FPartly sunny.6 mph77%30.01 "Hg6 mi
3:20 pm55 °FPartly sunny.6 mph77%30.01 "Hg5 mi
2:58 pm55 °FBroken clouds.7 mph77%30.04 "Hg5 mi
2:20 pm55 °FBroken clouds.5 mph88%30.04 "Hg4 mi
1:20 pm55 °FFog.5 mph88%30.07 "Hg3 mi
1:05 pm54 °FFog.5 mph88%30.07 "Hg3 mi
12:20 pm52 °FFog.2 mph94%30.09 "Hg2 mi
11:20 am50 °FFog.5 mph100%30.12 "Hg1 mi
10:43 am50 °FFog.8 mph100%30.12 "Hg1 mi
10:20 am50 °FFog.6 mph94%30.12 "Hg2 mi
9:56 am48 °FFog.7 mph100%30.12 "Hg1 mi
9:20 am48 °FFog.7 mph94%30.12 "Hg1 mi
8:20 am45 °FFog.2 mph100%30.12 "Hg0 mi
7:20 am45 °FFog.2 mph100%30.12 "Hg0 mi
6:20 am45 °FFog.1 mph100%30.15 "Hg0 mi
5:42 am48 °FFog.2 mph94%30.15 "Hg0 mi
5:20 am48 °FFog.3 mph100%30.15 "HgN/A
4:56 am48 °FFog.2 mph94%30.15 "HgN/A
4:20 am50 °FPassing clouds.1 mph100%30.15 "HgN/A
Weather by CustomWeather, © 2019

See weather overview